Terminal Aerodrome Forecast
Issued by NWS

Home | Current Version | Previous Version | Text Only | Print | Product List | Glossary On
Versions: 1 2 3 4 5 6 7 8 9 10 11 12 13 14 15 16 17 18 19 20 21 22 23 24 25 26 27 28 29 30 31 32 33 34 35 36 37 38 39 40 41 42 43 44 45 46 47 48 49 50
000
FTUS44 KHGX 250520
TAFCXO
TAF
KCXO 250520Z 2506/2606 21009KT P6SM VCSH OVC018
      TEMPO 2506/2508 VRB15G25KT 2SM -TSRA OVC020CB
     FM251500 24007KT P6SM VCSH SCT015 BKN025
     FM251800 21006KT P6SM SCT250
     FM260300 00000KT P6SM SKC=

USA.gov is the U.S. government's official web portal to all federal, state and local government web resources and services.